QPF
0.01 0.01 0.02 0.02 0.02 0.01 0.01 0.00 0.00 0.00 0.00 0.01 0.01 0.01 0.02 0.03 0.02 0.03 0.02 0.02 0.02 0.02 0.02 0.01 0.01 0.01 0.01 0.02 0.01 0.01 0.01 0.01 0.00 0.01 0.00 0.00 0.00 0.00 0.00 0.00 0.00 0.00 0.00
0.02 0.02 0.02 0.01 0.01 0.01 0.01 0.00 0.00 0.00 0.00 0.00 0.01 0.01 0.02 0.01 0.01 0.01 0.01 0.01 0.02 0.02 0.02 0.02 0.02 0.02 0.02 0.02 0.02 0.02 0.01 0.01 0.00 0.00 0.00 0.00 0.00 0.00 0.00 0.00 0.00 0.00 0.00
0.01 0.01 0.01 0.01 0.01 0.01 0.01 0.00 0.00 0.00 0.00 0.00 0.00 0.00 0.00 0.00 0.00 0.00 0.00 0.00 0.01 0.02 0.02 0.02 0.02 0.02 0.02 0.02 0.02 0.02 0.02 0.01 0.01 0.01 0.01 0.01 0.00 0.00 0.00 0.00 0.00 0.00 0.00
0.01 0.01 0.01 0.01 0.01 0.01 0.00 0.00 0.00 0.00 0.00 0.00 0.00 0.00 0.00 0.00 0.00 0.00 0.00 0.00 0.00 0.01 0.01 0.01 0.01 0.02 0.03 0.02 0.02 0.02 0.02 0.02 0.02 0.02 0.01 0.01 0.01 0.00 0.00 0.00 0.00 0.00 0.00
0.01 0.00 0.00 0.00 0.01 0.00 0.00 0.00 0.00 0.00 0.00 0.00 0.00 0.00 0.00 0.00 0.00 0.00 0.00 0.00 0.00 0.00 0.01 0.01 0.01 0.01 0.01 0.02 0.02 0.02 0.02 0.02 0.03 0.03 0.02 0.02 0.01 0.01 0.01 0.00 0.00 0.00 0.00
0.00 0.01 0.01 0.01 0.01 0.00 0.00 0.00 0.00 0.00 0.00 0.00 0.00 0.00 0.00 0.00 0.00 0.00 0.00 0.00 0.00 0.00 0.00 0.00 0.01 0.01 0.01 0.01 0.02 0.02 0.02 0.02 0.03 0.04 0.04 0.03 0.02 0.02 0.01 0.01 0.00 0.00 0.00
0.00 0.00 0.00 0.00 0.01 0.01 0.00 0.00 0.00 0.00 0.00 0.00 0.00 0.00 0.00 0.00 0.00 0.00 0.00 0.00 0.00 0.00 0.00 0.00 0.00 0.00 0.01 0.01 0.02 0.02 0.03 0.03 0.03 0.03 0.04 0.04 0.04 0.03 0.02 0.02 0.02 0.01 0.01
0.00 0.00 0.00 0.00 0.01 0.01 0.00 0.00 0.00 0.00 0.00 0.00 0.00 0.00 0.00 0.00 0.00 0.00 0.00 0.00 0.00 0.00 0.00 0.00 0.00 0.00 0.00 0.01 0.01 0.02 0.03 0.04 0.04 0.04 0.03 0.04 0.04 0.03 0.02 0.02 0.02 0.02 0.02
0.00 0.00 0.00 0.00 0.01 0.01 0.00 0.00 0.00 0.00 0.00 0.00 0.00 0.00 0.00 0.00 0.00 0.00 0.00 0.00 0.00 0.00 0.00 0.00 0.00 0.00 0.00 0.01 0.01 0.02 0.03 0.03 0.03 0.03 0.03 0.04 0.04 0.04 0.03 0.02 0.01 0.02 0.02
0.00 0.00 0.00 0.00 0.01 0.01 0.00 0.00 0.00 0.00 0.00 0.00 0.00 0.00 0.00 0.00 0.00 0.00 0.00 0.00 0.00 0.00 0.00 0.00 0.00 0.01 0.01 0.01 0.01 0.03 0.04 0.04 0.04 0.04 0.03 0.03 0.03 0.04 0.03 0.02 0.01 0.02 0.02
0.00 0.00 0.00 0.00 0.00 0.00 0.00 0.00 0.00 0.00 0.00 0.00 0.00 0.00 0.00 0.00 0.00 0.00 0.01 0.00 0.00 0.00 0.00 0.01 0.01 0.01 0.01 0.01 0.01 0.02 0.03 0.04 0.04 0.04 0.04 0.04 0.03 0.03 0.02 0.02 0.02 0.02 0.02
0.00 0.00 0.00 0.00 0.00 0.00 0.00 0.00 0.00 0.00 0.00 0.00 0.00 0.00 0.00 0.00 0.00 0.00 0.01 0.01 0.01 0.01 0.01 0.01 0.01 0.01 0.01 0.01 0.02 0.02 0.03 0.03 0.04 0.03 0.04 0.04 0.04 0.03 0.02 0.01 0.01 0.02 0.02
0.00 0.00 0.00 0.00 0.00 0.00 0.00 0.00 0.00 0.00 0.00 0.00 0.00 0.01 0.01 0.01 0.01 0.01 0.00 0.00 0.01 0.01 0.01 0.01 0.01 0.01 0.02 0.02 0.02 0.02 0.03 0.04 0.04 0.04 0.04 0.03 0.03 0.03 0.02 0.01 0.01 0.02 0.03
0.00 0.00 0.00 0.00 0.00 0.00 0.00 0.00 0.00 0.00 0.00 0.00 0.00 0.01 0.01 0.01 0.00 0.01 0.01 0.00 0.01 0.01 0.01 0.01 0.01 0.01 0.02 0.01 0.02 0.02 0.03 0.04 0.04 0.04 0.04 0.03 0.02 0.02 0.01 0.01 0.01 0.01 0.01
0.01 0.01 0.00 0.00 0.00 0.00 0.00 0.00 0.01 0.01 0.01 0.01 0.01 0.01 0.01 0.00 0.00 0.00 0.00 0.00 0.00 0.01 0.01 0.02 0.02 0.01 0.02 0.01 0.01 0.01 0.02 0.03 0.03 0.03 0.02 0.02 0.02 0.01 0.01 0.01 0.01 0.01 0.01
0.03 0.02 0.02 0.01 0.00 0.00 0.00 0.00 0.01 0.01 0.01 0.02 0.01 0.01 0.00 0.00 0.00 0.00 0.00 0.00 0.00 0.01 0.01 0.02 0.03 0.02 0.02 0.02 0.02 0.02 0.02 0.02 0.02 0.02 0.02 0.01 0.01 0.01 0.01 0.01 0.01 0.01 0.01
0.03 0.03 0.03 0.03 0.02 0.01 0.00 0.00 0.01 0.01 0.02 0.03 0.02 0.01 0.01 0.01 0.00 0.00 0.00 0.00 0.00 0.00 0.00 0.01 0.02 0.02 0.02 0.02 0.03 0.03 0.02 0.02 0.02 0.02 0.01 0.01 0.00 0.00 0.00 0.01 0.01 0.01 0.01
0.01 0.02 0.02 0.03 0.03 0.03 0.02 0.01 0.01 0.01 0.02 0.03 0.02 0.01 0.01 0.01 0.01 0.01 0.00 0.00 0.00 0.00 0.01 0.02 0.02 0.02 0.02 0.02 0.02 0.02 0.01 0.01 0.01 0.01 0.01 0.00 0.00 0.00 0.00 0.01 0.01 0.01 0.01
0.01 0.01 0.01 0.02 0.02 0.02 0.03 0.03 0.03 0.03 0.03 0.02 0.02 0.01 0.01 0.01 0.00 0.01 0.01 0.01 0.01 0.01 0.02 0.03 0.03 0.02 0.02 0.02 0.01 0.01 0.01 0.01 0.01 0.00 0.00 0.00 0.00 0.00 0.01 0.01 0.01 0.01 0.01
0.01 0.01 0.01 0.01 0.01 0.01 0.01 0.01 0.02 0.03 0.03 0.04 0.03 0.02 0.01 0.01 0.00 0.00 0.01 0.02 0.02 0.02 0.03 0.03 0.02 0.02 0.02 0.01 0.01 0.00 0.00 0.01 0.01 0.00 0.00 0.00 0.00 0.01 0.01 0.01 0.02 0.02 0.01
0.02 0.01 0.01 0.00 0.00 0.00 0.00 0.00 0.00 0.01 0.02 0.02 0.03 0.02 0.02 0.01 0.01 0.01 0.01 0.02 0.02 0.03 0.02 0.02 0.01 0.01 0.01 0.01 0.01 0.01 0.01 0.01 0.01 0.01 0.00 0.00 0.01 0.01 0.02 0.02 0.02 0.02 0.02
0.02 0.02 0.01 0.01 0.01 0.00 0.00 0.00 0.00 0.01 0.02 0.02 0.02 0.01 0.01 0.01 0.01 0.01 0.02 0.02 0.01 0.01 0.01 0.01 0.01 0.02 0.01 0.01 0.01 0.01 0.01 0.01 0.01 0.01 0.00 0.01 0.01 0.02 0.01 0.02 0.02 0.02 0.01
0.02 0.02 0.02 0.02 0.02 0.01 0.01 0.01 0.01 0.01 0.02 0.03 0.03 0.02 0.01 0.01 0.01 0.01 0.01 0.02 0.01 0.01 0.00 0.01 0.01 0.01 0.01 0.01 0.01 0.01 0.01 0.01 0.01 0.01 0.01 0.01 0.02 0.02 0.01 0.01 0.01 0.01 0.01
0.01 0.01 0.01 0.02 0.02 0.01 0.01 0.01 0.01 0.01 0.01 0.02 0.03 0.03 0.02 0.02 0.02 0.02 0.01 0.01 0.01 0.01 0.01 0.01 0.01 0.01 0.01 0.01 0.01 0.01 0.01 0.01 0.01 0.01 0.01 0.01 0.01 0.01 0.01 0.01 0.00 0.01 0.01
0.01 0.01 0.01 0.01 0.01 0.01 0.01 0.00 0.00 0.01 0.01 0.02 0.02 0.02 0.02 0.02 0.02 0.02 0.02 0.01 0.01 0.01 0.01 0.01 0.01 0.01 0.01 0.01 0.01 0.02 0.02 0.02 0.02 0.02 0.02 0.01 0.01 0.01 0.00 0.00 0.00 0.01 0.01
0.01 0.00 0.00 0.01 0.01 0.01 0.01 0.00 0.00 0.01 0.01 0.01 0.02 0.01 0.01 0.02 0.02 0.02 0.03 0.02 0.01 0.01 0.01 0.01 0.02 0.02 0.01 0.02 0.02 0.02 0.02 0.02 0.02 0.02 0.02 0.02 0.01 0.01 0.01 0.01 0.01 0.01 0.01
MSLP
1009.55 1009.82 1010.12 1010.50 1010.95 1011.50 1012.15 1012.87 1013.64 1014.44 1015.21 1015.93 1016.58 1017.15 1017.63 1018.06 1018.43 1018.78 1019.11 1019.45 1019.80 1020.15 1020.51 1020.86 1021.19 1021.50 1021.79 1022.07 1022.33 1022.59 1022.83 1023.07 1023.29 1023.49 1023.64 1023.75 1023.80 1023.78 1023.70 1023.56 1023.38 1023.17 1022.95
1009.25 1009.44 1009.67 1009.96 1010.34 1010.82 1011.43 1012.15 1012.97 1013.83 1014.70 1015.53 1016.29 1016.96 1017.54 1018.02 1018.43 1018.80 1019.14 1019.49 1019.84 1020.20 1020.57 1020.93 1021.28 1021.61 1021.91 1022.18 1022.44 1022.68 1022.91 1023.13 1023.35 1023.54 1023.70 1023.82 1023.89 1023.89 1023.82 1023.70 1023.53 1023.33 1023.11
1008.97 1009.06 1009.19 1009.37 1009.65 1010.07 1010.63 1011.35 1012.19 1013.12 1014.08 1015.02 1015.89 1016.67 1017.33 1017.89 1018.35 1018.74 1019.11 1019.46 1019.82 1020.18 1020.56 1020.93 1021.28 1021.61 1021.91 1022.18 1022.43 1022.67 1022.89 1023.12 1023.34 1023.54 1023.72 1023.87 1023.96 1023.98 1023.94 1023.83 1023.67 1023.47 1023.24
1008.81 1008.78 1008.78 1008.84 1009.02 1009.36 1009.88 1010.57 1011.43 1012.41 1013.44 1014.46 1015.42 1016.28 1017.02 1017.64 1018.15 1018.58 1018.97 1019.34 1019.70 1020.08 1020.46 1020.83 1021.19 1021.52 1021.82 1022.09 1022.34 1022.58 1022.81 1023.05 1023.29 1023.52 1023.74 1023.92 1024.04 1024.10 1024.08 1023.99 1023.83 1023.61 1023.35
1008.86 1008.70 1008.57 1008.51 1008.59 1008.84 1009.30 1009.96 1010.81 1011.80 1012.86 1013.92 1014.93 1015.84 1016.63 1017.29 1017.84 1018.30 1018.72 1019.11 1019.50 1019.89 1020.28 1020.66 1021.03 1021.36 1021.66 1021.94 1022.19 1022.44 1022.69 1022.95 1023.22 1023.50 1023.75 1023.98 1024.14 1024.24 1024.24 1024.17 1024.00 1023.77 1023.48
1009.18 1008.90 1008.64 1008.47 1008.45 1008.62 1009.01 1009.62 1010.43 1011.39 1012.43 1013.49 1014.49 1015.41 1016.20 1016.88 1017.45 1017.94 1018.38 1018.80 1019.21 1019.63 1020.04 1020.44 1020.82 1021.16 1021.47 1021.74 1022.01 1022.27 1022.54 1022.83 1023.13 1023.45 1023.75 1024.02 1024.24 1024.37 1024.40 1024.34 1024.17 1023.92 1023.59
1009.79 1009.40 1009.04 1008.77 1008.66 1008.75 1009.07 1009.61 1010.36 1011.25 1012.22 1013.22 1014.16 1015.03 1015.79 1016.45 1017.01 1017.51 1017.98 1018.43 1018.88 1019.33 1019.77 1020.19 1020.58 1020.93 1021.24 1021.53 1021.80 1022.07 1022.35 1022.67 1023.00 1023.36 1023.70 1024.02 1024.27 1024.45 1024.51 1024.47 1024.31 1024.04 1023.68
1010.64 1010.17 1009.74 1009.40 1009.23 1009.25 1009.50 1009.96 1010.61 1011.40 1012.27 1013.15 1013.99 1014.76 1015.45 1016.05 1016.58 1017.08 1017.56 1018.04 1018.52 1019.00 1019.48 1019.92 1020.33 1020.69 1021.00 1021.28 1021.55 1021.82 1022.11 1022.44 1022.79 1023.17 1023.55 1023.90 1024.20 1024.41 1024.51 1024.49 1024.35 1024.09 1023.72
1011.66 1011.15 1010.67 1010.30 1010.08 1010.05 1010.23 1010.60 1011.15 1011.82 1012.54 1013.28 1013.98 1014.62 1015.20 1015.72 1016.20 1016.67 1017.15 1017.65 1018.16 1018.67 1019.17 1019.64 1020.05 1020.41 1020.72 1020.99 1021.24 1021.50 1021.78 1022.11 1022.47 1022.86 1023.26 1023.64 1023.97 1024.21 1024.35 1024.37 1024.26 1024.02 1023.66
1012.76 1012.24 1011.75 1011.36 1011.12 1011.05 1011.17 1011.47 1011.91 1012.44 1013.01 1013.58 1014.12 1014.61 1015.06 1015.47 1015.88 1016.31 1016.77 1017.27 1017.79 1018.32 1018.83 1019.31 1019.72 1020.07 1020.36 1020.61 1020.84 1021.08 1021.35 1021.66 1022.01 1022.40 1022.81 1023.21 1023.56 1023.84 1024.02 1024.08 1024.01 1023.81 1023.48
1013.83 1013.34 1012.87 1012.48 1012.24 1012.15 1012.23 1012.46 1012.79 1013.19 1013.62 1014.02 1014.39 1014.72 1015.03 1015.33 1015.65 1016.01 1016.43 1016.90 1017.41 1017.93 1018.43 1018.89 1019.29 1019.62 1019.89 1020.12 1020.33 1020.55 1020.80 1021.09 1021.43 1021.82 1022.22 1022.63 1022.99 1023.30 1023.51 1023.62 1023.60 1023.45 1023.17
1014.82 1014.37 1013.94 1013.58 1013.35 1013.26 1013.31 1013.47 1013.72 1014.01 1014.29 1014.54 1014.75 1014.93 1015.09 1015.27 1015.48 1015.76 1016.11 1016.53 1016.99 1017.48 1017.95 1018.38 1018.75 1019.05 1019.30 1019.51 1019.70 1019.91 1020.15 1020.44 1020.78 1021.15 1021.56 1021.96 1022.33 1022.65 1022.89 1023.03 1023.06 1022.96 1022.74
1015.69 1015.31 1014.93 1014.62 1014.41 1014.33 1014.35 1014.47 1014.65 1014.83 1014.99 1015.11 1015.18 1015.22 1015.25 1015.30 1015.40 1015.58 1015.84 1016.17 1016.56 1016.98 1017.39 1017.76 1018.09 1018.37 1018.60 1018.80 1018.99 1019.21 1019.46 1019.75 1020.10 1020.47 1020.87 1021.27 1021.63 1021.95 1022.20 1022.36 1022.42 1022.38 1022.22
1016.44 1016.14 1015.83 1015.58 1015.41 1015.34 1015.36 1015.44 1015.55 1015.65 1015.71 1015.72 1015.67 1015.59 1015.49 1015.42 1015.41 1015.48 1015.63 1015.85 1016.14 1016.46 1016.79 1017.10 1017.37 1017.62 1017.84 1018.04 1018.26 1018.50 1018.78 1019.10 1019.46 1019.84 1020.24 1020.62 1020.97 1021.28 1021.51 1021.68 1021.76 1021.74 1021.63
1017.10 1016.90 1016.67 1016.48 1016.36 1016.30 1016.32 1016.37 1016.43 1016.47 1016.45 1016.36 1016.22 1016.03 1015.84 1015.66 1015.54 1015.49 1015.52 1015.63 1015.79 1016.00 1016.23 1016.46 1016.68 1016.89 1017.09 1017.31 1017.56 1017.84 1018.17 1018.53 1018.91 1019.31 1019.70 1020.07 1020.39 1020.67 1020.88 1021.03 1021.10 1021.11 1021.03
1017.70 1017.61 1017.48 1017.36 1017.28 1017.25 1017.26 1017.29 1017.32 1017.29 1017.21 1017.06 1016.84 1016.58 1016.30 1016.03 1015.81 1015.65 1015.57 1015.55 1015.60 1015.68 1015.80 1015.94 1016.09 1016.27 1016.46 1016.70 1016.98 1017.30 1017.67 1018.07 1018.49 1018.90 1019.29 1019.63 1019.92 1020.15 1020.32 1020.44 1020.50 1020.50 1020.44
1018.28 1018.29 1018.26 1018.22 1018.19 1018.18 1018.20 1018.21 1018.20 1018.13 1018.00 1017.80 1017.53 1017.22 1016.88 1016.55 1016.25 1016.00 1015.82 1015.69 1015.61 1015.59 1015.59 1015.64 1015.72 1015.85 1016.02 1016.26 1016.56 1016.92 1017.32 1017.75 1018.19 1018.61 1018.98 1019.29 1019.54 1019.72 1019.85 1019.92 1019.96 1019.95 1019.90
1018.83 1018.95 1019.02 1019.05 1019.07 1019.09 1019.11 1019.10 1019.06 1018.97 1018.80 1018.57 1018.27 1017.93 1017.57 1017.20 1016.86 1016.55 1016.29 1016.07 1015.90 1015.76 1015.67 1015.62 1015.63 1015.69 1015.83 1016.05 1016.34 1016.70 1017.12 1017.55 1017.99 1018.39 1018.73 1019.01 1019.22 1019.36 1019.44 1019.48 1019.49 1019.48 1019.43
1019.35 1019.57 1019.72 1019.82 1019.89 1019.93 1019.95 1019.94 1019.88 1019.76 1019.58 1019.33 1019.03 1018.69 1018.33 1017.96 1017.60 1017.27 1016.96 1016.68 1016.43 1016.21 1016.03 1015.89 1015.82 1015.81 1015.89 1016.05 1016.31 1016.64 1017.02 1017.43 1017.84 1018.20 1018.52 1018.76 1018.93 1019.03 1019.09 1019.10 1019.10 1019.08 1019.04
1019.82 1020.13 1020.35 1020.50 1020.61 1020.67 1020.70 1020.68 1020.61 1020.48 1020.29 1020.05 1019.76 1019.44 1019.10 1018.76 1018.41 1018.08 1017.76 1017.45 1017.16 1016.88 1016.62 1016.41 1016.25 1016.16 1016.15 1016.24 1016.42 1016.68 1017.00 1017.35 1017.70 1018.02 1018.29 1018.49 1018.63 1018.72 1018.76 1018.78 1018.78 1018.76 1018.74
1020.22 1020.58 1020.85 1021.05 1021.19 1021.27 1021.30 1021.28 1021.21 1021.08 1020.90 1020.68 1020.42 1020.13 1019.83 1019.53 1019.22 1018.92 1018.61 1018.30 1017.98 1017.66 1017.35 1017.07 1016.83 1016.65 1016.55 1016.54 1016.62 1016.79 1017.01 1017.28 1017.55 1017.81 1018.03 1018.20 1018.32 1018.41 1018.46 1018.49 1018.51 1018.51 1018.50
1020.56 1020.94 1021.24 1021.46 1021.61 1021.71 1021.75 1021.74 1021.67 1021.55 1021.38 1021.18 1020.96 1020.71 1020.46 1020.21 1019.95 1019.68 1019.40 1019.10 1018.79 1018.45 1018.10 1017.76 1017.45 1017.19 1017.00 1016.88 1016.85 1016.90 1017.02 1017.19 1017.38 1017.57 1017.74 1017.89 1018.01 1018.11 1018.18 1018.24 1018.29 1018.32 1018.32
1020.84 1021.21 1021.51 1021.73 1021.90 1022.01 1022.06 1022.05 1022.00 1021.89 1021.74 1021.57 1021.37 1021.17 1020.95 1020.74 1020.53 1020.30 1020.05 1019.78 1019.47 1019.13 1018.76 1018.38 1018.02 1017.68 1017.40 1017.19 1017.06 1017.00 1017.02 1017.09 1017.20 1017.33 1017.46 1017.59 1017.71 1017.83 1017.93 1018.03 1018.11 1018.17 1018.18
1021.07 1021.41 1021.69 1021.91 1022.08 1022.20 1022.26 1022.26 1022.22 1022.13 1022.00 1021.84 1021.66 1021.48 1021.30 1021.12 1020.93 1020.73 1020.50 1020.25 1019.95 1019.61 1019.24 1018.84 1018.44 1018.06 1017.72 1017.43 1017.21 1017.07 1017.00 1016.99 1017.03 1017.11 1017.21 1017.32 1017.45 1017.59 1017.72 1017.85 1017.96 1018.03 1018.03
1021.30 1021.59 1021.83 1022.03 1022.20 1022.31 1022.38 1022.40 1022.37 1022.29 1022.16 1022.02 1021.85 1021.67 1021.50 1021.32 1021.14 1020.95 1020.73 1020.49 1020.20 1019.87 1019.50 1019.10 1018.69 1018.28 1017.91 1017.58 1017.31 1017.10 1016.97 1016.90 1016.89 1016.93 1017.00 1017.11 1017.24 1017.39 1017.54 1017.68 1017.79 1017.86 1017.86
1021.54 1021.76 1021.96 1022.13 1022.28 1022.39 1022.46 1022.48 1022.45 1022.37 1022.25 1022.10 1021.93 1021.75 1021.56 1021.37 1021.18 1020.98 1020.76 1020.51 1020.23 1019.90 1019.54 1019.16 1018.75 1018.35 1017.97 1017.63 1017.34 1017.11 1016.94 1016.84 1016.80 1016.80 1016.86 1016.95 1017.07 1017.21 1017.36 1017.49 1017.59 1017.64 1017.61
Thickness
5625 5627 5629 5631 5631 5632 5632 5632 5632 5631 5631 5630 5628 5627 5627 5627 5628 5629 5630 5630 5629 5629 5628 5626 5625 5624 5622 5621 5620 5618 5616 5614 5613 5612 5612 5613 5614 5614 5612 5611 5610 5608 5607
5616 5619 5621 5623 5625 5625 5626 5626 5626 5625 5625 5624 5623 5622 5620 5620 5620 5621 5621 5621 5622 5621 5620 5619 5618 5616 5615 5613 5611 5610 5607 5605 5603 5601 5600 5601 5604 5605 5605 5602 5601 5599 5597
5610 5612 5613 5614 5616 5618 5619 5621 5619 5618 5617 5617 5615 5613 5612 5612 5611 5612 5612 5613 5613 5613 5612 5612 5610 5609 5607 5605 5603 5601 5599 5596 5593 5591 5589 5587 5589 5591 5595 5593 5592 5590 5587
5602 5605 5607 5607 5609 5612 5612 5613 5612 5611 5610 5609 5609 5607 5606 5604 5604 5603 5603 5604 5604 5604 5604 5603 5602 5600 5599 5597 5595 5593 5590 5587 5584 5582 5580 5577 5576 5575 5580 5582 5581 5579 5577
5593 5597 5600 5602 5603 5604 5605 5605 5604 5603 5602 5602 5602 5600 5598 5597 5595 5595 5595 5595 5595 5595 5595 5594 5593 5592 5590 5588 5586 5584 5581 5579 5576 5573 5571 5568 5565 5564 5563 5568 5570 5568 5567
5583 5588 5591 5592 5593 5593 5594 5595 5595 5594 5593 5593 5593 5592 5591 5588 5587 5586 5585 5585 5585 5585 5585 5584 5583 5582 5581 5579 5577 5575 5572 5570 5568 5565 5563 5560 5557 5555 5553 5554 5556 5556 5558
5572 5576 5579 5582 5583 5583 5585 5586 5586 5585 5584 5584 5584 5583 5582 5581 5580 5578 5577 5576 5575 5575 5575 5574 5573 5572 5571 5570 5568 5565 5563 5561 5559 5557 5554 5552 5550 5547 5544 5542 5542 5543 5546
5561 5564 5567 5570 5573 5574 5576 5576 5576 5575 5575 5575 5574 5574 5573 5572 5571 5570 5568 5567 5566 5565 5565 5564 5563 5562 5561 5560 5558 5556 5554 5552 5550 5548 5546 5543 5541 5538 5536 5532 5530 5531 5534
5548 5551 5554 5557 5561 5563 5565 5566 5566 5565 5565 5564 5564 5563 5562 5562 5560 5559 5559 5557 5556 5556 5555 5554 5553 5552 5551 5549 5548 5546 5545 5543 5541 5539 5537 5535 5533 5530 5527 5524 5520 5516 5517
5533 5537 5541 5544 5548 5551 5552 5554 5554 5554 5553 5553 5553 5553 5552 5551 5550 5549 5548 5547 5546 5545 5544 5543 5542 5541 5540 5539 5538 5537 5535 5534 5532 5530 5528 5526 5524 5521 5518 5515 5511 5507 5504
5520 5524 5527 5530 5534 5537 5539 5540 5541 5541 5541 5542 5542 5541 5540 5540 5539 5538 5537 5536 5535 5534 5533 5532 5531 5530 5530 5529 5528 5527 5525 5524 5523 5521 5519 5518 5515 5513 5509 5506 5502 5498 5495
5506 5509 5512 5516 5519 5522 5525 5526 5528 5529 5529 5529 5529 5529 5528 5528 5527 5526 5525 5524 5523 5523 5522 5521 5520 5520 5519 5518 5517 5516 5515 5514 5513 5512 5511 5509 5507 5504 5501 5497 5494 5490 5487
5492 5495 5498 5501 5505 5507 5510 5512 5514 5516 5517 5517 5517 5517 5516 5516 5515 5514 5514 5513 5512 5511 5511 5510 5510 5509 5508 5507 5507 5506 5506 5504 5504 5503 5501 5500 5497 5494 5491 5489 5485 5482 5479
5479 5482 5484 5487 5490 5494 5496 5499 5501 5503 5505 5505 5505 5504 5504 5504 5503 5503 5502 5501 5501 5500 5500 5500 5499 5498 5498 5497 5496 5496 5496 5495 5494 5493 5492 5489 5487 5484 5482 5479 5476 5473 5470
5467 5469 5472 5474 5477 5480 5483 5485 5487 5490 5492 5493 5492 5492 5492 5492 5492 5491 5490 5490 5489 5490 5489 5489 5488 5488 5487 5487 5486 5486 5486 5484 5484 5483 5481 5479 5477 5475 5472 5469 5466 5463 5460
5454 5457 5459 5462 5464 5467 5470 5472 5474 5476 5479 5480 5480 5481 5481 5480 5480 5479 5479 5478 5478 5478 5478 5478 5477 5477 5477 5477 5477 5476 5476 5475 5474 5472 5471 5469 5466 5464 5462 5460 5457 5454 5451
5443 5444 5446 5449 5451 5454 5457 5459 5461 5464 5466 5467 5468 5469 5469 5469 5468 5468 5468 5467 5467 5467 5467 5466 5466 5466 5466 5467 5467 5467 5466 5465 5463 5461 5460 5458 5456 5454 5451 5449 5447 5445 5443
5431 5432 5433 5435 5438 5440 5443 5446 5448 5451 5453 5454 5456 5457 5457 5457 5457 5457 5457 5456 5456 5456 5456 5455 5455 5455 5456 5457 5457 5457 5456 5454 5453 5451 5448 5446 5445 5443 5440 5439 5437 5435 5433
5419 5419 5421 5423 5425 5427 5430 5433 5435 5437 5440 5442 5443 5444 5445 5446 5446 5446 5446 5446 5446 5445 5445 5445 5445 5445 5445 5447 5447 5447 5445 5443 5442 5440 5438 5436 5434 5433 5431 5429 5428 5426 5424
5406 5407 5408 5410 5413 5415 5417 5420 5422 5424 5427 5429 5430 5432 5434 5435 5435 5435 5435 5435 5435 5435 5435 5435 5435 5435 5436 5437 5437 5435 5433 5432 5431 5430 5428 5426 5425 5423 5422 5419 5418 5417 5415
5394 5395 5396 5398 5400 5403 5405 5408 5410 5411 5414 5417 5419 5421 5422 5423 5424 5424 5424 5425 5425 5425 5424 5425 5425 5425 5425 5426 5425 5424 5422 5421 5420 5419 5417 5416 5415 5414 5412 5411 5409 5408 5406
5382 5383 5385 5386 5389 5391 5394 5396 5398 5400 5403 5405 5408 5409 5410 5411 5413 5413 5414 5414 5414 5414 5414 5414 5415 5414 5414 5414 5414 5414 5413 5412 5410 5408 5407 5406 5406 5405 5403 5401 5400 5399 5397
5371 5372 5374 5376 5378 5379 5382 5384 5386 5389 5391 5393 5395 5397 5399 5399 5400 5401 5402 5403 5403 5403 5403 5404 5403 5404 5403 5403 5403 5403 5403 5402 5400 5399 5399 5398 5397 5396 5394 5393 5391 5389 5387
5359 5362 5364 5365 5367 5369 5371 5373 5376 5378 5380 5382 5384 5386 5387 5388 5390 5391 5392 5393 5393 5393 5393 5393 5393 5393 5393 5393 5393 5392 5392 5392 5391 5390 5390 5389 5388 5386 5384 5383 5381 5379 5378
5348 5350 5352 5355 5356 5358 5360 5363 5365 5368 5369 5371 5373 5375 5377 5378 5379 5381 5381 5382 5383 5384 5384 5384 5384 5384 5384 5385 5385 5384 5384 5383 5383 5382 5381 5379 5378 5376 5375 5373 5372 5371 5370
5338 5339 5342 5344 5345 5347 5349 5352 5354 5357 5358 5361 5363 5364 5366 5368 5369 5371 5372 5374 5375 5376 5376 5376 5376 5376 5376 5377 5377 5377 5377 5376 5375 5374 5371 5370 5369 5367 5366 5366 5365 5365 5364